Ante Srna

Chefscout - Dinamo Zagreb
11 Mär 2027
Donnerstag
Verarbeitung

Persönlichkeit

Anpassungsfähigkeit (5) Ehrgeiz (10) Kontroverse (2) Loyalität (9) Druck (2) Professionalität (8) Fairness (14) Temperament (2)

Profil

Trainerstil Demokratisch
Lizenz Kontinentale B
Entschlossenheit 10
Menschenführung 13
Motivation 14
Disziplin 10
Arbeitszufriedenheit
67%
Ermüdung
0%
Rolle Chefscout
Gehalt 54.0K p/W
Vertrag 14.03.2027

Leistung

Verhalten Gut
Trainingseffektivität
28%
Spielerentwicklung
70%
Verletzungsprävention
70%
Taktische Umsetzung
30%

Letzte Ereignisse

Vertragsverhandlung begonnen jetzt
Nahm an einer Scouting-Besprechung teil jetzt
Empfahl ein Transferziel jetzt
Empfahl ein Transferziel jetzt
Empfahl ein Transferziel jetzt
Nahm an einer Scouting-Besprechung teil jetzt
Empfahl ein Transferziel jetzt
Vertragsverhandlung begonnen jetzt

Aktuell beobachtet

93
Spieler Verein Status Fähigkeit Vertrauen Beobachtet Zuletzt beobachtet Letzte Stimme
Svetoslav Vutsov Levski Aktiv 133 / 129 40% 2 09.03.2027 -
João Virgínia Wolverhampton Aktiv 117 / 111 40% 1 09.03.2027 -
Arijanet Murić Sassuolo Aktiv 129 / 149 40% 4 07.03.2027 -
James Trafford Leeds United Aktiv 153 / 132 40% 1 07.03.2027 -
Michele Cerofolini Bari Aktiv 110 / 138 40% 2 06.03.2027 -
Justin Bijlow Genoa Aktiv 153 / 140 40% 3 06.03.2027 -
Ethan Galbraith Swansea City Aktiv 140 / 136 40% 1 05.03.2027 -
Callum Brittain Middlesbrough Aktiv 114 / 126 40% 1 05.03.2027 -
Nathan Trott Cardiff City Aktiv 124 / 123 40% 1 05.03.2027 -
Michael Cooper Sheffield United Aktiv 127 / 138 40% 1 04.03.2027 -
Mehdi Dorval Catanzaro Aktiv 130 / 135 40% 1 03.03.2027 -
Samuele Angori Pisa Aktiv 137 / 128 40% 1 03.03.2027 -
Edoardo Corvi Parma Aktiv 117 / 124 40% 3 28.02.2027 -
Jonathan Klinsmann Cesena Aktiv 109 / 125 40% 1 28.02.2027 -
Alexandr Maximenko Spartak Moscow Aktiv 119 / 126 40% 1 25.02.2027 -
Bento Al-Nassr Aktiv 115 / 131 40% 2 24.02.2027 -
Ľubomír Belko Viking Aktiv 129 / 124 40% 1 24.02.2027 -
Ander Astralaga Real Sociedad Aktiv 141 / 127 40% 1 23.02.2027 -
Simone Scuffet Pisa Aktiv 113 / 146 40% 1 23.02.2027 -
Alex Meret Napoli Aktiv 168 / 136 40% 2 19.02.2027 -
Oliver Dovin Coventry City Aktiv 123 / 132 40% 1 19.02.2027 -
Viktor Johansson Stoke City Aktiv 136 / 132 40% 2 18.02.2027 -
Omri Glazer Maccabi Haifa Aktiv 112 / 125 40% 2 18.02.2027 -
Maduka Okoye Udinese Aktiv 146 / 136 40% 4 16.02.2027 -
Dinko Horkaš Al Wasl Aktiv 117 / 135 40% 3 15.02.2027 -
Denis Adamov Zenit Aktiv 122 / 135 40% 2 14.02.2027 -
Ángel Fortuño Espanyol Aktiv 129 / 112 40% 1 14.02.2027 -
Demba Thiam Monza Aktiv 119 / 135 40% 1 13.02.2027 -
Maílson Al-Taawoun Aktiv 139 / 133 40% 1 10.02.2027 -
Franco Israel Torino Aktiv 117 / 147 40% 2 09.02.2027 -
Franco Petroli Lanús Aktiv 121 / 128 40% 2 08.02.2027 -
Filip Stanković Venezia Aktiv 119 / 142 40% 1 08.02.2027 -
Sebastián Meza Huracán Aktiv 119 / 126 40% 2 06.02.2027 -
Edoardo Motta Lazio Aktiv 120 / 135 40% 1 03.02.2027 -
Lorenzo Palmisani Frosinone Aktiv 136 / 125 40% 1 02.02.2027 -
Ivor Pandur Hull City Aktiv 106 / 127 40% 1 01.02.2027 -
Vanja Milinković-Savić Torino Aktiv 137 / 154 40% 1 31.01.2027 -
Ezequiel Centurión River Plate Aktiv 115 / 135 40% 2 30.01.2027 -
Bart Verbruggen Brighton Aktiv 156 / 151 40% 2 27.01.2027 -
Maílson Al-Taawoun Verloren 124 / 132 40% 1 11.01.2027 -
Carlos Coronel Sport Recife Aktiv 137 / 124 40% 1 11.01.2027 -
Mao Hosoya Sagan Tosu Verhandlung 134 / 135 90% 1 01.01.2027 Befürworten
Marvin Keller Bayer Leverkusen Aktiv 136 / 137 67% 1 01.01.2027 Befürworten
Luiz Henrique West Ham United Aktiv 142 / 143 68% 1 01.01.2027 Befürworten
Toni Fruk KV Mechelen Aktiv 132 / 133 90% 1 01.01.2027 Befürworten
Nino Zenit Aktiv 153 / 140 40% 2 30.12.2026 -
Jaime Seoane Al-Faisaly Aktiv 144 / 146 40% 2 30.12.2026 -
Roger Ibañez Al-Ahli Aktiv 170 / 165 40% 1 29.12.2026 -
Adrián Marín Persepolis Aktiv 127 / 139 40% 1 29.12.2026 -
Rúben Neves Al-Hilal Aktiv 163 / 133 40% 7 28.12.2026 -
Marwan Ateya Al Ahly Aktiv 118 / 121 40% 3 28.12.2026 -
Walid Ismail Al Shabab Aktiv 141 / 138 40% 1 27.12.2026 -
Antonino Gallo Lecce Aktiv 148 / 145 40% 1 27.12.2026 -
Marlon Gomes Shakhtar Aktiv 127 / 129 40% 3 23.12.2026 -
Mohamed Simakan Al-Nassr Aktiv 161 / 154 40% 1 22.12.2026 -
Aníbal Moreno River Plate Aktiv 119 / 133 40% 1 19.12.2026 -
Yacine Adli Al-Shabab Aktiv 121 / 147 40% 3 18.12.2026 -
Alexandr Chernikov Krasnodar Aktiv 136 / 129 40% 1 18.12.2026 -
Gustavo Mantuan Zenit Aktiv 137 / 130 40% 3 17.12.2026 -
Samú Al-Nassr Aktiv 126 / 144 40% 3 17.12.2026 -
Diego Costa Krasnodar Aktiv 134 / 135 40% 6 14.12.2026 -
Israel Reyes CSKA Moscow Aktiv 150 / 133 40% 3 14.12.2026 -
Luis Chávez Dinamo Moscow Aktiv 127 / 122 40% 1 13.12.2026 -
Morten Frendrup Genoa Aktiv 152 / 154 40% 2 12.12.2026 -
Patrick Berg Bodo/Glimt Aktiv 129 / 145 40% 2 10.12.2026 -
Aschraf El Mahdioui Al-Taawoun Aktiv 123 / 139 40% 2 09.12.2026 -
Zaydou Youssouf Al-Fateh Aktiv 138 / 125 40% 1 09.12.2026 -
Wendel Zenit Aktiv 144 / 141 40% 5 08.12.2026 -
Ângelo Al-Nassr Aktiv 130 / 151 40% 1 08.12.2026 -
Josen Escobar Al Ahli Aktiv 126 / 131 40% 1 04.12.2026 -
Rodrigo Bentancur Tottenham Aktiv 133 / 135 40% 1 02.12.2026 -
Yves Bissouma Tottenham Aktiv 155 / 146 40% 3 01.12.2026 -
Christian Krasnodar Aktiv 148 / 128 40% 5 27.11.2026 -
Nicolás Fernández Mercau Shakhtar Aktiv 122 / 125 40% 3 23.11.2026 Beobachten
Kady Borges Qarabag Aktiv 120 / 114 40% 1 23.11.2026 -
Emil Breivik Molde Aktiv 143 / 114 40% 1 20.11.2026 -
Josh Brownhill Al-Shabab Aktiv 123 / 142 40% 1 17.11.2026 -
Aslak Fonn Witry Rosenborg Aktiv 114 / 128 40% 1 13.11.2026 -
Sondre Brunstad Fet Bodo/Glimt Aktiv 121 / 123 40% 3 10.11.2026 -
Fabián Paris Saint-Germain Aktiv 148 / 179 40% 3 06.11.2026 -
Rubens Dinamo Moscow Aktiv 121 / 123 40% 2 05.11.2026 -
Tormena Krasnodar Aktiv 123 / 131 40% 2 26.10.2026 -
Sergio Reguilón Inter Miami CF Aktiv 149 / 127 40% 1 24.10.2026 -
Vinicius Tobias Shakhtar Aktiv 118 / 126 40% 1 23.10.2026 -
João Gomes Aston Villa Aktiv 155 / 148 40% 1 22.10.2026 -
Eduard Löwen San Jose Earthquakes Aktiv 116 / 115 40% 1 21.10.2026 -
Mandla Erasmus SuperSport United Aktiv 114 / 125 40% 1 13.10.2026 -
Andreas Hanche-Olsen Chicago Fire Aktiv 150 / 128 40% 1 06.10.2026 -
Mario Marina NK Varazdin Aktiv 115 / 104 51% 1 24.08.2026 -
Nikola Vasilj Al-Diriyah Aktiv 150 / 147 40% 1 17.08.2026 -
Orkun Kökçü Besiktas Aktiv 137 / 154 40% 1 03.08.2026 -
Théo Hernández Al-Hilal Aktiv 158 / 156 40% 1 03.08.2026 -
Florentino Luís Ipswich Town Aktiv 129 / 150 40% 1 02.08.2026 -